This demonstration page uses our WeatherBlox Daily Observations layout. Learn more.

Left ArrowRight Arrow

Hourly Observations for May 7, 2018

Temp ( °F °C ) Dew Point ( °F °C ) Humidity (%) Winds ( mph kmh ) Pressure ( in mb ) Visibility ( mi km ) Precip ( " mm )
12:53 am 00:53 Clear 59 15 44 6.7 58 58 E 6 9 30.15 1021 10 16 0.00 0.00
1:53 am 01:53 Clear 61 16.1 44 6.7 54 54 E 8 13 30.15 1021 10 16 0.00 0.00
2:53 am 02:53 Clear 62 16.7 45 7.2 54 54 ESE 12 19 30.15 1021 10 16 0.00 0.00
3:53 am 03:53 Clear 60 15.6 45 7.2 58 58 ESE 12 19 30.16 1021 10 16 0.00 0.00
4:53 am 04:53 Clear 58 14.4 46 7.8 65 65 SE 9 15 30.16 1022 10 16 0.00 0.00
5:53 am 05:53 Clear 56 13.3 45 7.2 67 67 SE 8 13 30.17 1022 10 16 0.00 0.00
6:53 am 06:53 Sunny 56 13.3 45 7.2 67 67 SSE 6 9 30.18 1022 10 16 0.00 0.00
7:53 am 07:53 Sunny 59 15 46 7.8 62 62 SE 10 17 30.18 1022 10 16 0.00 0.00
8:53 am 08:53 Sunny 64 17.8 47 8.3 54 54 SE 13 20 30.18 1022 10 16 0.00 0.00
9:53 am 09:53 Sunny 69 20.6 49 9.4 49 49 SSE 9 15 30.18 1022 10 16 0.00 0.00
10:53 am 10:53 Sunny 73 22.8 45 7.2 37 37 SSE 13 20 30.14 1021 10 16 0.00 0.00
11:53 am 11:53 Sunny 76 24.4 46 7.8 35 35 SE 14 22 30.12 1020 10 16 0.00 0.00
12:53 pm 12:53 Sunny 79 26.1 47 8.3 32 32 SE 15 24 30.09 1019 10 16 0.00 0.00
1:53 pm 13:53 Sunny 81 27.2 48 8.9 32 32 SSE 10 17 30.06 1018 10 16 0.00 0.00
2:53 pm 14:53 Sunny 82 27.8 47 8.3 29 29 SSE 13 20 30.03 1017 10 16 0.00 0.00
3:53 pm 15:53 Sunny 81 27.2 48 8.9 32 32 SE 15 24 30.00 1016 10 16 0.00 0.00
4:53 pm 16:53 Sunny 82 27.8 49 9.4 32 32 SSE 15 24 29.98 1015 10 16 0.00 0.00
5:53 pm 17:53 Sunny 82 27.8 48 8.9 31 31 SSE 15 24 29.97 1015 10 16 0.00 0.00
6:53 pm 18:53 Sunny 81 27.2 48 8.9 32 32 SSE 16 26 29.95 1014 10 16 0.00 0.00
7:53 pm 19:53 Sunny 79 26.1 47 8.3 32 32 SSE 15 24 29.94 1014 10 16 0.00 0.00
8:53 pm 20:53 Clear 75 23.9 47 8.3 37 37 SSE 9 15 29.93 1014 10 16 0.00 0.00
9:53 pm 21:53 Clear 71 21.7 48 8.9 44 44 SE 12 19 29.93 1014 10 16 0.00 0.00
10:53 pm 22:53 Clear 70 21.1 49 9.4 47 47 SE 13 20 29.91 1013 10 16 0.00 0.00
11:53 pm 23:53 Clear 69 20.6 49 9.4 49 49 SSE 13 20 29.89 1012 10 16 0.00 0.00

Powered by AerisWeather